OBJECT B, 56158

Orbit data source: Space-Track

You're viewing an Uncataloged Satellite

Recently launched and/or uncataloged satellites may have evolving metadata. Metadata may include but not limited to: Owner, Maufacturer, Bus, Motor, and Mission.

OBJECT B, 56158 is a satellite owned by CNSA (CN) in LEO that was launched on Fri, 31 Mar 2023 UTC launched from the Jiuquan Satellite Launch Center, China (JSC). Unknown objects in Earth's orbit typically refer to objects detected orbiting the Earth but have not yet been identified or cataloged. These objects could be anything from previously untracked satellites, spent rocket stages, debris from satellite collisions, or even natural meteoroids temporarily captured by Earth's gravity.

Loading next visibility...
Identifier
56158, 2023-048B
Orbit
LEO
Country
Flag of CNCN / PRC
Related business
Manufacturer
SAST
Mission
Spacecraft
Bus & Motor
CZ-4 STAGE 3, Unknown motor
Mass
~1,000 kg wet, ~1,000 kg dry
Launch date (UTC)
2023-03-31 (3 years ago)
Launch vehicle
Unknown
Launch site
Jiuquan Satellite Launch Center, China (JSC)
Object type
Unknown
Shape & HBR
Cyl, 2.5 m
Radar Cross Section
14.536 m², Large (>1 m²)

Expand to show TLE details & history
Last TLE update: 23 hours ago

TLE from 23 hours ago
0 OBJECT B
1 56158U 23048B   26172.49689995 -.00000073  00000-0  23097-4 0  9995
2 56158  63.4074 323.3974 0220311  25.0870 336.0681 13.68542293161236
Epoch: 2026-06-21T11:55Z
TLE epoch observation values (Epoch: 2026-06-21T11:55:32.155Z)
Latitude
0.00003°
Longitude
-125.18289°
Altitude
858.518 km
Speed
7.498 km/s
True Right ascension
21h 33m 35s
True Declination
0° 00' 00"
Sunlit
Object was in full shadow at epoch
Visualization orbit readout
Latitude
Unknown
Longitude
Unknown
Altitude
Unknown
Speed
Unknown
Apparent Right ascension
Unknown
Apparent Declination
Unknown
Sunlit
N/A
Visualization observer readout
Local Sidereal Time
21:32:13
Azimuth
Unknown
Elevation
Unknown
Doppler factor
Unknown
Orbital elements
Apogee altitude
1,166.251 km
Perigee altitude
840.995 km
Semi-major axis
7,381.76 km
Eccentricity
0.02203
Inclination
63.4074°
RAAN
323.3974°
Arg. of periapsis
25.087°
True anomaly
335.01765°
Mean anomaly
336.0681°
Eccentric anomaly
335.54555°
Mean motion
3.42218 °/min
Orbital period
105.2 mins
BSTAR
0.000023097
Loading maneuver chart data...
Computing Atmospheric mass density...
Loading historical data...
Loading historical data...
Loading historical data...
Loading historical data...
Loading historical data...
Loading historical data...
Loading historical data...
Other satellites on launch #48 in the year 2023 (2023-03-31 UTC)

Documentation

Showing up to 5 results
|